Location: Andrest
(43.3200°N, 0.0641°E)
Time: 08:42:01
(UTC+00:00)

BREEZE-M DEB (TANK) - Pass Details

Date: 01 December 2020
Orbit: 305 x 17162 km, 49.4° (Epoch: 23 January)

Event Time Altitude Azimuth Distance (km) Brightness Sun altitude
Rises 18:18:59 0° 291° (WNW) 2,022 6.7 -20.1°
Reaches altitude 10° 18:20:42 10° 307° (NW) 1,226 5.1 -20.4°
Enters shadow 18:21:43 20° 332° (NNW) 886 4.0 -20.6°
